Track STARLINK-3297 now! 10-day predictions STARLINK-3297 is classified as:
1 50159U 21125D 22182.43762447 -.00001822 00000-0 -96372-4 0 9999 2 50159 53.2147 187.1789 0003097 34.7375 325.3819 15.08829562 33062